Retour au catalogue

CZ-6A DEB

ActifPO
NORAD 61130·DEBRIS·🇨🇳 China

Lancé Aug 6, 2024 depuis Taiyuan Satellite Launch Center

Loading…

Prochains Passages (prochaines 24 heures)

TLE

FraisSource: Space-Track

Époque: Sep 14, 2026, 08:33 UTC

1 61130U 24140PY  26257.35629047  .00001701  00000-0  62259-3 0  9996
2 61130  88.6248 228.9276 0067375 146.3276 214.2229 14.31200660107612

Suivez CZ-6A DEB en temps réel avec AllMySat

Download on the App Store